Preview of NWS' New Version of Forecast
This preview is not operational and should not be used for support decisions.

Regional Weather Roundup (RWR)

Issued by National Weather Service (NWS)

                            
000
ASUS43 KBIS 182010
RWRND 

NORTH DAKOTA REGIONAL WEATHER ROUNDUP
NATIONAL WEATHER SERVICE BISMARCK ND
200 PM CST MON FEB 18 2019

NOTE: "FAIR" INDICATES FEW OR NO CLOUDS BELOW 12,000 FEET WITH NO
SIGNIFICANT WEATHER AND/OR OBSTRUCTIONS TO VISIBILITY.


NDZ001>003-009>011-017-182100-
NORTHWEST NORTH DAKOTA
  
CITY           SKY/WX    TMP DP  RH WIND       PRES   REMARKS
WILLISTON      PTSUNNY    5  -3  69 W7        30.42F WCI  -7          
MINOT          CLOUDY     7  -3  64 N3        30.44F                  
MINOT AFB      SUNNY      4  -3  69 CALM      30.44F                  
$$
 
NDZ018>021-031>035-040>046-182100-
SOUTHWEST NORTH DAKOTA
  
CITY           SKY/WX    TMP DP  RH WIND       PRES   REMARKS
BISMARCK       PTSUNNY    9   0  67 SW5       30.47F WCI   1          
DICKINSON      CLOUDY     3  -5  69 W10       30.34F HAZE    WCI -12  
GARRISON         N/A      1  -3  83 CALM      30.43F                  
HETTINGER ARPT PTSUNNY    2  -5  72 W10       30.37F WCI -14          
$$
 
NDZ004>008-012>016-024-026-027-054-182100-
NORTHEAST NORTH DAKOTA
  
CITY           SKY/WX    TMP DP  RH WIND       PRES   REMARKS
GRAND FORKS    SUNNY      0  -7  72 N10       30.56S WCI -16          
GRND FRKS AFB  SUNNY      2  -7  66 N7        30.55S WCI -11          
DEVILS LAKE    MOSUNNY   -1  -7  75 N3        30.50F                  
$$
 
NDZ022-023-025-028>030-036>039-047>053-182100-
SOUTHEAST NORTH DAKOTA
  
CITY           SKY/WX    TMP DP  RH WIND       PRES   REMARKS
FARGO          SUNNY      1  -6  72 NW7       30.55F WCI -12          
JAMESTOWN      CLOUDY     3  -3  76 NW7       30.48S WCI  -9          
$$